TimeEDT,TemperatureF,Dew PointF,Humidity,Sea Level PressureIn,VisibilityMPH,Wind Direction,Wind SpeedMPH,Gust SpeedMPH,PrecipitationIn,Events,Conditions,WindDirDegrees,DateUTC
12:54 AM,66.9,64.0,90,29.95,6.0,SSE,8.1,-,N/A,,Overcast,150,2013-09-21 04:54:00
1:54 AM,66.9,64.0,90,29.93,7.0,SE,5.8,-,N/A,,Overcast,140,2013-09-21 05:54:00
2:54 AM,66.0,64.0,93,29.92,7.0,South,5.8,-,N/A,,Overcast,170,2013-09-21 06:54:00
3:54 AM,66.0,64.0,93,29.91,8.0,SSW,4.6,-,N/A,,Overcast,200,2013-09-21 07:54:00
4:54 AM,66.0,64.0,93,29.89,8.0,SSE,5.8,-,N/A,,Overcast,160,2013-09-21 08:54:00
5:54 AM,66.0,64.0,93,29.88,7.0,South,5.8,-,N/A,,Overcast,170,2013-09-21 09:54:00
6:54 AM,66.0,64.0,93,29.87,6.0,South,6.9,-,N/A,,Overcast,170,2013-09-21 10:54:00
7:25 AM,66.2,64.4,94,29.89,3.0,SSE,6.9,-,N/A,,Overcast,160,2013-09-21 11:25:00
7:46 AM,66.2,64.4,94,29.89,2.0,SSE,6.9,-,0.00,,Light Drizzle,160,2013-09-21 11:46:00
7:54 AM,66.0,64.0,93,29.87,2.0,SSE,8.1,-,0.00,,Light Drizzle,160,2013-09-21 11:54:00
8:33 AM,66.2,64.4,94,29.89,3.0,South,8.1,-,0.00,,Overcast,180,2013-09-21 12:33:00
8:54 AM,66.9,64.9,93,29.87,3.0,South,6.9,-,0.00,,Overcast,180,2013-09-21 12:54:00
9:34 AM,68.0,64.4,88,29.89,4.0,South,10.4,-,N/A,,Overcast,180,2013-09-21 13:34:00
9:54 AM,68.0,64.9,90,29.87,4.0,SSW,8.1,-,N/A,,Overcast,200,2013-09-21 13:54:00
10:54 AM,70.0,64.9,84,29.86,6.0,SSW,6.9,-,N/A,,Haze,200,2013-09-21 14:54:00
11:44 AM,71.6,66.2,83,29.86,7.0,SW,9.2,-,N/A,,Overcast,220,2013-09-21 15:44:00
11:54 AM,72.0,66.0,81,29.83,7.0,SSW,6.9,-,N/A,,Overcast,200,2013-09-21 15:54:00
12:54 PM,75.0,66.9,76,29.81,10.0,SW,12.7,-,N/A,,Overcast,220,2013-09-21 16:54:00
1:21 PM,75.2,66.2,73,29.82,10.0,SSW,11.5,-,N/A,,Overcast,210,2013-09-21 17:21:00
1:54 PM,75.9,66.9,74,29.78,10.0,SSW,9.2,-,N/A,,Overcast,210,2013-09-21 17:54:00
2:54 PM,73.9,66.9,79,29.76,8.0,SW,12.7,-,0.00,Rain,Light Rain,220,2013-09-21 18:54:00
3:17 PM,71.6,66.2,83,29.78,8.0,SW,10.4,19.6,0.00,Rain,Light Rain,220,2013-09-21 19:17:00
3:54 PM,72.0,68.0,87,29.75,7.0,SSW,10.4,-,0.02,Rain,Light Rain,210,2013-09-21 19:54:00
4:54 PM,71.1,68.0,90,29.73,5.0,SSW,12.7,-,0.01,Rain,Light Rain,200,2013-09-21 20:54:00
5:54 PM,71.1,66.9,87,29.72,9.0,SSW,10.4,-,0.01,,Overcast,200,2013-09-21 21:54:00
6:54 PM,70.0,66.9,90,29.73,6.0,SW,6.9,-,0.00,Rain,Light Rain,230,2013-09-21 22:54:00
7:39 PM,69.8,66.2,88,29.77,2.5,WNW,9.2,-,0.02,Rain,Heavy Rain,290,2013-09-21 23:39:00
7:54 PM,64.9,63.0,93,29.75,2.0,NW,10.4,-,0.15,Rain,Heavy Rain,310,2013-09-21 23:54:00
8:42 PM,64.4,62.6,94,29.78,4.0,North,6.9,-,0.31,Rain,Heavy Rain,350,2013-09-22 00:42:00
8:54 PM,64.0,62.1,93,29.77,3.0,NNW,5.8,-,0.36,Rain,Rain,340,2013-09-22 00:54:00
9:54 PM,64.0,62.1,93,29.78,10.0,WNW,4.6,-,0.10,Rain,Light Rain,290,2013-09-22 01:54:00
10:54 PM,64.0,62.1,93,29.76,10.0,ESE,3.5,-,0.06,Rain,Light Rain,120,2013-09-22 02:54:00
11:54 PM,64.0,62.1,93,29.75,10.0,NNE,3.5,-,0.00,,Mostly Cloudy,30,2013-09-22 03:54:00